Regional Weather Roundup
Issued by NWS

Home | Current Version | Previous Version | Text Only | Print | Product List | Glossary Off
Versions: 1 2 3 4 5 6 7 8 9 10 11 12 13 14 15 16 17 18 19 20 21 22 23 24 25 26 27 28 29 30 31 32 33 34 35 36 37 38 39 40 41 42 43 44 45 46 47 48 49 50

000
ASUS43 KDMX 142301
RWRIA

WEATHER ROUNDUP FOR IOWA
NATIONAL WEATHER SERVICE DES MOINES IA
500 PM CST THU DEC 14 2017

NOTE: "FAIR" INDICATES FEW OR NO CLOUDS BELOW 12,000 FEET WITH NO
SIGNIFICANT WEATHER AND/OR OBSTRUCTIONS TO VISIBILITY.

* - THESE STATIONS ARE NOT NWS STATIONS...THUS NOT UNDER NWS
QUALITY CONTROL.  THEY ALSO DO NOT REPORT WEATHER SUCH
AS PRECIPITATION OR FOG.

IAZ001>003-012>014-020>022-031>034-043>046-150000-
   NORTHWEST IOWA

CITY           SKY/WX    TMP DP  RH WIND       PRES   REMARKS
CARROLL *      CLOUDY    32  23  69 NW7       30.06S WCI  26
CHEROKEE *     CLOUDY    33  28  81 CALM      30.05F
DENISON *      CLOUDY    34  23  64 CALM      30.08S
LE MARS *      CLOUDY    36  27  69 NW8       30.06S WCI  29
ORANGE CITY *  FLURRIES  36  30  80 NW12      30.05R WCI  27
SHELDON *      CLOUDY    32  28  86 NW3       30.03S
SIOUX CITY     CLOUDY    37  26  64 NW10      30.07S WCI  30
SPENCER        CLOUDY    31  24  75 N6        30.05S WCI  25
STORM LAKE *   CLOUDY    32  27  80 NW6       30.04S WCI  26
$$

IAZ055>058-069>071-079>083-090>094-150000-
   SOUTHWEST IOWA

CITY           SKY/WX    TMP DP  RH WIND       PRES   REMARKS
ATLANTIC *     CLOUDY    34  23  64 N5        30.08S WCI  30
AUDUBON *      CLOUDY    34  25  69 NW6       30.08R WCI  29
CLARINDA *     CLOUDY    39  27  60 N6          N/A  WCI  35
COUNCIL BLFS * CLOUDY    37  27  65 N3        30.07S
CRESTON *      CLOUDY    32  25  74 NW6       30.08R WCI  26
HARLAN  *      CLOUDY    36  23  60 N6        30.11R WCI  31
LAMONI         CLOUDY    33  23  66 NW6       30.07R WCI  28
RED OAK *      CLOUDY    37  25  60 N10       30.08R WCI  30
SHENANDOAH *   CLOUDY    39  25  56 N6        30.09R WCI  35
$$

IAZ047>049-059>061-072>074-084-150000-
   CENTRAL IOWA

CITY           SKY/WX    TMP DP  RH WIND       PRES   REMARKS
AMES           CLOUDY    31  22  69 NW8       30.07R WCI  23
ANKENY *       CLOUDY    32  21  64 W5        30.09S WCI  27
BOONE *        CLOUDY    30  21  69 NW7       30.05S WCI  23
CHARITON *     CLOUDY    32  19  59 NW5       30.07R WCI  27
DES MOINES     CLOUDY    32  20  61 NW6       30.08R WCI  26
GRINNELL*      CLOUDY    27  19  71 CALM      30.08S
KNOXVILLE *    CLOUDY    30  16  55 CALM      30.07R
MARSHALLTOWN   CLOUDY    28  19  69 CALM      30.05S
NEWTON *       CLOUDY    28  18  64 CALM      30.07S
PELLA *        CLOUDY    29  19  65 CALM      30.09S
$$

IAZ004>006-015-016-023>025-035-036-150000-
   NORTH CENTRAL IOWA

CITY           SKY/WX    TMP DP  RH WIND       PRES   REMARKS
ALGONA *       CLOUDY    30  23  74 N6        30.04S WCI  24
CLARION *      CLOUDY    30  23  74 NW7       30.04S WCI  23
ESTHERVILLE    CLOUDY    28  20  71 NW9       30.04R WCI  19
FORT DODGE *   CLOUDY    31  23  72 NW5       30.05S WCI  26
MASON CITY     CLOUDY    25  18  74 NW7       30.04S WCI  17
FOREST CITY *  CLOUDY    27  23  86 NW3       30.03F
WEBSTER CITY * CLOUDY    32  21  64 NW9       30.03R WCI  24
IOWA FALLS *   CLOUDY    29  21  70 W5        30.05S WCI  24
$$

IAZ007>011-017>019-026>030-037>042-050>054-066-150000-
   NORTHEAST IOWA

CITY           SKY/WX    TMP DP  RH WIND       PRES   REMARKS
CEDAR RAPIDS   CLOUDY    25  16  68 W7        30.07R WCI  17
CHARLES CITY * CLOUDY    25  19  80 NW8       30.04R WCI  16
CLINTON *      CLOUDY    26  17  68 SW9       30.08R WCI  17
DECORAH *      CLOUDY    25  18  74 VRB7      30.01S WCI  17
DUBUQUE        MOCLDY    24  16  71 W8        30.04S WCI  15
MONTICELLO *   CLOUDY    27  16  63 W8        30.06S WCI  18
OELWEIN *      CLOUDY    25  18  74 W10       30.04S WCI  15
WATERLOO       CLOUDY    26  16  65 NW6       30.05S WCI  19
$$

IAZ064-065-067-068-078-150000-
   EAST CENTRAL IOWA

CITY           SKY/WX    TMP DP  RH WIND       PRES   REMARKS
DAVENPORT      CLOUDY    26  16  65 W7        30.10R WCI  18
IOWA CITY      CLOUDY    27  16  63 W8        30.11R WCI  19
MT. PLEASANT * CLOUDY    26  16  64 W3        30.10R
MUSCATINE *    CLOUDY    28  16  59 NW8       30.11R WCI  20
QUAD CITIES    CLOUDY    28  17  63 W5        30.08R WCI  23
$$

IAZ062-063-075>077-085>089-095>099-150000-
   SOUTHEAST IOWA

CITY           SKY/WX    TMP DP  RH WIND       PRES   REMARKS
BURLINGTON     CLOUDY    28  17  63 NW5       30.08S WCI  23
FAIRFIELD *    CLOUDY    27  16  63 CALM      30.08S
FORT MADISON * CLOUDY    28  18  64 NW8       30.09S WCI  20
KEOKUK *       CLOUDY    28  18  64 W6        30.09S WCI  22
OSKALOOSA *    CLOUDY    27  18  68 N7        30.09R WCI  20
OTTUMWA        CLOUDY    28  17  63 N12       30.08R WCI  18
WASHINGTON *   CLOUDY    27  18  69 NW6       30.10S WCI  20
$$

ABBREVIATIONS USED IN REMARKS
   TC - TEMPERATURES IN CELSIUS
  WCI - WIND CHILL INDEX
   HX - HEAT INDEX
  VSB - VISIBILITY
$$





USA.gov is the U.S. government's official web portal to all federal, state and local government web resources and services.